Change the Weather History Date:

Thursday, January 23, 2014

  Actual Average Record
Temperature  
Mean Temperature 28 °F 27 °F  
Max Temperature 39 °F 39 °F 53 °F (2005)
Min Temperature 17 °F 16 °F 3 °F (2002)
Degree Days  
Heating Degree Days 37 38  
Month to date heating degree days 876 902  
Since 1 July heating degree days 3645 3510  
Cooling Degree Days 0 0  
Month to date cooling degree days 0 0  
Year to date cooling degree days 0 0  
Moisture  
Dew Point 16 °F    
Average Humidity 62    
Maximum Humidity 84    
Minimum Humidity 40    
Precipitation  
Precipitation 0.00 in 0.02 in 0.09 in (2002)
Month to date precipitation T 0.50  
Year to date precipitation T 0.50  
Sea Level Pressure  
Sea Level Pressure 30.32 in    
Wind  
Wind Speed 7 mph (SE)    
Max Wind Speed 13 mph    
Max Gust Speed 14 mph    
Visibility 10 miles    
Events      
T = Trace of Precipitation, MM = Missing Value Source: NWS Daily Summary

Daily Weather History Graph

Daily Weather History Graph

Search for Another Location

Airport or City:

Trip Planner

Search our weather history database for the weather conditions in past years. The results will help you decide how hot, cold, wet, or windy it might be!

Date:

Astronomy

Jan. 23, 2014 Rise Set
Actual Time 7:23 AM MST 5:23 PM MST
Civil Twilight 6:55 AM MST 5:52 PM MST
Nautical Twilight 6:23 AM MST 6:24 PM MST
Astronomical Twilight 5:51 AM MST 6:55 PM MST
Moon No Moon Rise 11:06 AM MST (1/23)
Length of Visible Light 10h 56m
Length of Day
9h 59m
Waning Gibbous, 54% of the Moon is Illuminated
Jan 23
Waning Gibbous
Jan 23
Last Quarter
Jan 30
New
Feb 6
First Quarter
Feb 14
Full

Hourly Weather History & Observations

Time (MST) Temp. Windchill Dew Point Humidity Pressure Visibility Wind Dir Wind Speed Gust Speed Precip Events Conditions
12:53 AM 27.0 °F 20.5 °F 18.0 °F 69% 30.04 in 10.0 mi SSE 5.8 mph - N/A   Clear
1:53 AM 25.0 °F 18.1 °F 15.1 °F 66% 30.04 in 10.0 mi SSE 5.8 mph - N/A   Clear
2:53 AM 21.9 °F 13.4 °F 14.0 °F 72% 30.06 in 10.0 mi SE 6.9 mph - N/A   Clear
3:53 AM 19.9 °F 13.4 °F 15.1 °F 81% 30.09 in 10.0 mi SSE 4.6 mph - N/A   Clear
4:53 AM 19.0 °F 12.3 °F 12.9 °F 77% 30.14 in 10.0 mi SE 4.6 mph - N/A   Partly Cloudy
5:53 AM 19.9 °F 9.3 °F 12.9 °F 74% 30.21 in 10.0 mi South 9.2 mph - N/A   Partly Cloudy
6:53 AM 17.1 °F 6.6 °F 10.0 °F 74% 30.26 in 10.0 mi SE 8.1 mph - N/A   Clear
7:53 AM 19.9 °F 11.1 °F 12.0 °F 71% 30.30 in 10.0 mi South 6.9 mph - N/A   Partly Cloudy
8:53 AM 21.9 °F 14.5 °F 14.0 °F 72% 30.34 in 10.0 mi ESE 5.8 mph - N/A   Overcast
9:53 AM 28.0 °F 24.2 °F 18.0 °F 66% 30.36 in 10.0 mi East 3.5 mph - N/A   Overcast
10:53 AM 30.9 °F 26.2 °F 19.0 °F 61% 30.36 in 10.0 mi NW 4.6 mph - N/A   Partly Cloudy
11:53 AM 34.0 °F 28.8 °F 19.0 °F 54% 30.34 in 10.0 mi North 5.8 mph - N/A   Clear
12:53 PM 34.0 °F 28.0 °F 19.0 °F 54% 30.32 in 10.0 mi WNW 6.9 mph - N/A   Clear
1:53 PM 36.0 °F 29.6 °F 18.0 °F 48% 30.31 in 10.0 mi NW 8.1 mph - N/A   Clear
2:53 PM 37.0 °F 31.6 °F 16.0 °F 42% 30.32 in 10.0 mi NNW 6.9 mph - N/A   Clear
3:53 PM 37.9 °F 33.5 °F 15.1 °F 39% 30.34 in 10.0 mi North 5.8 mph - N/A   Clear
4:53 PM 37.9 °F - 16.0 °F 41% 30.36 in 10.0 mi Calm Calm - N/A   Clear
5:53 PM 32.0 °F 28.7 °F 17.1 °F 54% 30.41 in 10.0 mi NNE 3.5 mph - N/A   Clear
6:53 PM 27.0 °F 19.5 °F 18.0 °F 69% 30.47 in 10.0 mi SSE 6.9 mph - N/A   Clear
7:53 PM 25.0 °F 15.5 °F 17.1 °F 72% 30.50 in 10.0 mi SSE 9.2 mph - N/A   Clear
8:53 PM 24.1 °F 14.4 °F 16.0 °F 71% 30.53 in 10.0 mi SSE 9.2 mph - N/A   Clear
9:53 PM 24.1 °F 14.4 °F 16.0 °F 71% 30.54 in 10.0 mi SSE 9.2 mph - N/A   Clear
10:53 PM 21.9 °F 10.4 °F 15.1 °F 75% 30.56 in 10.0 mi SE 11.5 mph - N/A   Clear
11:53 PM 23.0 °F 13.9 °F 15.1 °F 72% 30.55 in 10.0 mi SE 8.1 mph - N/A   Clear